Wind_Speed
21 24 25 19 16 15 16 17 17 19 19 21 22 22 22 26 28 26 25 24 17 16 16 16 18 16 12 12 11 10 9 8 7 7 8 9 9 6 4 5 7 8 10 14
25 30 21 19 20 19 20 20 24 23 23 26 25 28 27 28 29 27 26 20 17 17 18 17 14 11 11 11 10 9 8 7 6 5 3 4 4 6 10 11 11 12 17 17
30 23 18 21 22 24 26 26 27 24 23 26 28 34 32 31 29 22 20 18 19 19 20 19 15 14 12 10 10 8 7 8 8 7 6 6 11 11 12 12 12 14 16 17
25 30 32 31 32 29 33 30 25 23 21 15 12 7 12 9 15 17 17 18 21 23 22 20 17 16 14 13 12 13 12 11 11 11 12 13 13 13 13 15 18 21 24 27
31 28 25 27 28 27 30 27 23 19 17 20 22 12 12 19 17 16 19 22 22 22 21 20 18 16 16 14 14 15 14 13 14 13 14 17 18 21 22 24 26 28 29 30
41 39 33 28 27 23 21 16 13 12 12 7 24 22 9 14 12 13 15 17 21 22 21 21 20 19 18 17 17 17 16 16 16 17 18 20 22 25 28 30 31 31 32 33
32 36 34 32 26 20 21 18 3 2 4 5 11 17 23 12 14 13 16 19 21 20 20 23 23 21 19 19 18 20 20 19 18 21 24 28 30 31 31 32 33 34 35 34
15 11 27 29 32 25 27 27 9 7 4 3 11 10 9 14 18 17 19 20 20 20 23 25 23 21 20 20 22 23 21 20 23 28 31 33 34 35 36 37 38 38 38 39
14 16 14 21 27 29 24 30 28 4 4 2 9 11 13 17 16 17 22 19 18 21 24 24 23 22 23 23 23 22 22 27 30 34 35 36 37 39 40 40 41 41 41 41
21 8 15 27 22 30 23 25 16 12 2 4 5 12 15 10 16 15 16 16 19 23 25 28 26 24 24 23 23 25 29 33 35 36 36 37 39 40 41 42 42 42 41 41
36 22 12 26 30 34 37 27 19 14 12 5 2 7 7 16 16 13 11 14 19 22 25 25 24 24 24 24 27 30 33 38 38 37 39 40 40 40 41 40 39 39 39 37
41 21 23 29 25 33 33 38 39 24 11 14 10 15 15 14 15 17 15 12 16 20 23 26 26 26 26 27 32 35 39 40 39 38 38 37 38 37 38 36 35 36 36 36
37 23 14 11 24 29 37 42 38 37 33 31 10 11 13 18 17 19 20 19 20 22 25 28 31 30 28 32 37 40 36 37 37 37 36 36 36 35 34 34 34 34 35 37
33 37 33 32 22 27 44 42 41 38 34 30 41 37 33 31 25 30 25 21 22 24 28 32 32 31 35 39 37 34 35 36 37 36 34 32 32 33 33 32 33 35 37 37
42 44 47 44 34 30 26 28 35 46 46 33 42 41 42 39 38 34 34 29 29 31 32 33 34 35 40 36 32 33 34 35 34 33 32 31 31 30 32 34 36 38 37 36
48 38 44 42 43 39 35 38 37 33 35 37 39 46 43 40 41 39 36 32 30 29 32 34 41 39 31 30 32 33 33 33 33 33 31 30 30 31 35 36 36 37 36 37
52 47 34 31 38 39 32 55 49 47 48 45 44 48 44 41 36 32 30 30 33 36 38 41 38 32 31 32 33 35 32 31 33 31 30 30 32 36 36 36 36 36 38 37
46 42 29 15 17 8 26 25 27 30 33 32 32 34 26 25 24 27 30 30 32 31 31 29 29 32 34 35 37 33 30 29 29 29 31 34 37 36 36 36 37 39 39 39
35 32 23 13 21 15 18 24 26 22 25 23 19 16 20 25 27 29 31 33 32 28 28 30 32 34 36 39 34 31 29 27 29 32 36 36 35 35 36 36 38 39 40 39
34 33 32 15 7 10 24 28 26 27 29 26 24 21 21 24 29 28 27 27 25 25 27 30 35 38 38 33 31 29 28 29 32 31 31 31 32 33 34 36 38 39 40 39
30 29 35 30 17 13 25 19 17 15 20 24 23 19 19 23 20 20 23 25 25 30 33 34 36 33 29 28 28 28 29 30 28 29 30 31 32 32 34 36 39 39 39 39
33 24 25 20 12 12 23 25 26 27 22 21 22 19 17 20 22 23 26 28 30 31 33 34 34 30 26 27 28 29 30 28 28 29 30 30 31 32 35 37 40 40 40 41
16 20 17 20 19 23 17 16 14 13 13 16 19 23 27 27 27 27 29 29 31 33 35 36 33 29 27 28 30 31 30 29 30 30 30 30 32 34 36 38 39 40 39 40
26 28 29 29 32 33 23 14 15 14 16 19 23 25 27 28 27 27 29 32 34 34 35 34 30 30 30 31 32 33 32 31 31 32 33 33 35 37 39 39 42 40 40 42
25 28 33 36 33 22 22 23 17 18 21 23 24 27 28 25 25 26 28 31 32 33 33 30 31 33 34 34 33 32 35 34 32 34 35 35 37 39 40 40 40 39 40 38
35 39 34 24 17 14 18 14 16 21 24 25 26 25 26 24 23 25 26 27 29 28 32 33 33 35 36 36 32 34 35 34 34 35 36 36 38 39 40 40 40 39 38 38
Wind_Direction
250 248 250 274 279 263 253 254 264 273 270 268 270 267 266 269 270 271 273 280 266 264 277 282 285 285 278 282 279 271 273 281 280 281 280 275 276 281 303 307 319 322 331 326
249 254 266 258 252 250 250 256 264 270 269 273 275 274 271 266 268 271 272 260 258 267 274 280 281 270 269 268 264 264 268 273 271 270 263 262 267 288 309 310 309 314 318 319
256 258 255 248 250 252 257 261 266 270 270 273 280 280 275 271 266 262 245 246 259 267 279 288 276 271 264 262 264 265 268 274 272 263 252 269 298 299 303 306 303 314 312 311
260 253 253 255 255 259 261 265 265 262 264 260 265 280 278 271 233 231 235 249 257 265 273 270 262 262 262 260 260 259 257 258 259 262 277 290 295 296 294 290 291 297 299 301
256 262 262 258 264 262 261 262 264 258 247 252 251 259 249 241 233 234 255 259 260 261 262 253 253 252 249 249 252 250 252 254 258 266 274 275 276 278 286 294 298 299 297 295
254 255 257 259 258 249 245 243 236 244 243 249 246 226 220 226 229 234 245 252 258 260 259 253 252 249 247 248 249 251 253 255 261 269 278 286 289 293 296 300 303 303 303 304
251 250 250 249 242 228 217 203 188 236 208 229 201 218 231 202 215 232 242 239 249 256 256 256 251 245 243 246 250 254 256 262 275 288 297 303 305 306 307 309 310 310 310 310
235 244 232 231 229 223 221 208 193 207 200 227 209 224 229 219 233 239 224 232 241 248 253 252 246 242 244 245 250 254 260 273 291 302 310 311 311 311 312 311 310 309 309 308
219 232 229 219 225 217 210 208 222 236 246 276 231 240 238 235 233 225 228 235 247 261 268 256 250 246 244 244 249 259 276 290 297 304 308 309 309 308 307 307 307 306 307 308
227 228 219 211 213 214 219 217 203 211 209 260 249 242 235 201 209 216 233 244 255 258 260 261 247 240 238 246 260 278 289 293 298 303 304 306 306 305 305 304 303 305 306 307
224 221 211 205 212 214 210 207 206 212 218 185 229 237 160 189 189 202 231 252 267 266 265 249 235 236 247 262 277 287 295 297 298 302 304 302 302 302 302 303 305 305 305 304
220 224 226 219 220 222 227 227 223 216 215 226 246 256 204 234 228 255 275 271 266 260 256 247 242 247 262 277 288 295 296 294 294 295 296 298 299 301 302 301 300 302 302 302
216 216 218 229 230 223 223 226 229 234 241 237 220 255 236 243 259 272 286 279 274 267 268 263 253 262 273 286 288 287 286 288 292 293 294 295 295 294 293 294 296 298 300 300
225 228 227 229 233 229 222 225 228 231 228 233 238 251 253 261 264 283 289 278 268 264 263 260 253 265 276 283 282 281 286 289 289 290 291 289 288 289 290 291 295 296 297 297
226 226 228 232 234 237 238 234 236 235 237 230 253 257 263 269 275 280 282 279 272 270 264 258 260 269 282 275 275 283 287 287 286 286 284 284 285 286 292 294 295 296 296 296
217 221 226 227 235 234 233 238 240 241 244 249 254 260 263 266 272 276 279 281 275 266 261 258 268 276 268 272 283 287 286 284 283 282 282 282 286 292 294 293 294 294 294 297
222 222 223 228 233 234 238 240 240 245 250 254 250 267 268 273 270 273 276 272 267 265 264 263 267 263 271 280 287 290 283 277 280 282 280 281 287 292 290 291 290 289 293 297
227 220 220 236 213 222 238 254 242 250 256 254 259 265 268 265 264 263 264 265 264 262 262 260 261 270 278 285 292 288 281 279 279 279 280 284 287 284 284 286 284 288 293 297
241 242 222 214 206 249 249 251 253 257 265 263 252 248 261 272 265 264 273 268 266 262 262 267 273 279 283 291 288 283 280 281 280 281 281 280 278 278 279 279 283 289 293 295
220 220 221 200 194 205 257 255 262 261 265 270 269 267 263 262 263 278 264 261 260 266 271 275 279 284 287 285 280 279 282 283 282 281 278 276 277 276 276 279 284 290 291 292
202 213 215 224 233 244 236 245 257 230 267 279 283 270 260 273 269 253 257 263 268 280 284 283 284 285 284 278 276 280 285 288 283 279 280 278 279 279 278 280 284 287 293 292
207 197 215 221 223 251 258 257 249 267 273 272 271 271 282 279 271 274 278 283 285 285 284 290 292 285 280 275 279 285 290 288 282 285 286 282 279 281 282 283 287 289 291 293
201 211 220 228 248 255 261 256 241 241 260 260 264 277 282 280 285 285 286 286 286 286 291 297 295 285 277 278 284 291 294 287 287 290 291 284 282 283 285 287 290 290 291 292
247 256 250 252 251 253 250 239 250 251 260 267 270 272 276 283 284 283 284 284 286 290 292 292 281 276 278 282 289 295 291 289 288 290 291 284 283 285 288 288 290 288 291 291
247 254 253 251 250 251 261 270 260 259 262 268 274 275 275 271 276 282 285 285 287 288 289 284 277 274 279 282 287 284 288 287 287 289 289 285 283 284 286 287 288 287 291 290
256 255 254 259 265 274 278 262 268 251 268 271 264 262 263 270 284 286 283 283 284 285 286 283 282 283 285 285 281 278 284 283 285 288 287 284 284 285 287 288 288 290 290 291
Height
3149 3150 3150 3153 3155 3155 3155 3156 3156 3157 3157 3155 3155 3155 3158 3155 3153 3153 3154 3153 3153 3153 3154 3155 3154 3154 3154 3154 3154 3154 3154 3154 3154 3154 3153 3152 3152 3153 3153 3153 3152 3152 3151 3151
3145 3141 3149 3149 3149 3149 3149 3151 3151 3152 3152 3150 3149 3147 3149 3147 3146 3148 3148 3148 3148 3149 3149 3149 3149 3149 3149 3149 3149 3149 3149 3151 3151 3150 3150 3150 3150 3149 3149 3150 3150 3149 3149 3148
3137 3140 3141 3142 3143 3143 3143 3144 3145 3147 3147 3145 3142 3138 3139 3140 3140 3141 3141 3142 3143 3143 3144 3145 3145 3145 3145 3146 3148 3147 3147 3148 3149 3149 3148 3148 3147 3147 3147 3146 3145 3145 3144 3144
3132 3133 3134 3135 3136 3139 3136 3139 3140 3140 3142 3140 3139 3134 3132 3132 3134 3136 3138 3139 3140 3140 3140 3140 3141 3141 3141 3143 3143 3146 3146 3145 3146 3146 3144 3142 3141 3141 3141 3141 3141 3140 3139 3139
3124 3124 3126 3127 3130 3132 3131 3134 3135 3135 3135 3134 3134 3135 3123 3127 3129 3131 3134 3135 3135 3136 3136 3136 3137 3139 3139 3139 3139 3140 3141 3140 3140 3139 3140 3139 3139 3138 3137 3137 3135 3135 3133 3132
3115 3117 3120 3121 3123 3125 3126 3128 3130 3131 3132 3128 3124 3126 3118 3120 3123 3125 3125 3127 3130 3130 3130 3132 3134 3135 3137 3137 3134 3136 3137 3137 3137 3136 3136 3135 3134 3134 3132 3130 3129 3127 3125 3122
3108 3108 3111 3114 3117 3119 3120 3124 3127 3130 3128 3119 3115 3118 3111 3117 3119 3122 3124 3123 3123 3124 3124 3125 3126 3127 3128 3133 3133 3132 3132 3131 3132 3132 3130 3129 3128 3125 3123 3120 3118 3115 3113 3111
3100 3101 3101 3104 3106 3111 3112 3116 3116 3120 3119 3112 3112 3107 3105 3108 3112 3116 3117 3118 3119 3120 3122 3122 3122 3123 3124 3126 3127 3125 3125 3125 3126 3125 3123 3120 3118 3115 3113 3110 3108 3106 3104 3101
3093 3094 3095 3097 3100 3106 3106 3108 3111 3109 3110 3110 3103 3099 3100 3103 3107 3110 3111 3112 3113 3114 3117 3118 3119 3120 3119 3118 3121 3120 3119 3118 3117 3116 3114 3111 3109 3107 3105 3103 3099 3097 3095 3092
3086 3089 3089 3092 3095 3098 3099 3103 3106 3106 3109 3108 3094 3093 3091 3094 3099 3103 3106 3108 3109 3109 3108 3109 3112 3113 3113 3114 3115 3113 3112 3110 3109 3107 3106 3103 3101 3098 3096 3093 3091 3088 3086 3083
3080 3083 3085 3086 3083 3085 3089 3091 3096 3098 3096 3094 3094 3084 3084 3088 3092 3096 3099 3102 3103 3102 3101 3102 3104 3105 3107 3108 3108 3106 3104 3102 3099 3097 3095 3094 3092 3090 3086 3084 3082 3080 3079 3076
3071 3074 3075 3076 3076 3078 3080 3081 3084 3084 3087 3086 3084 3076 3080 3084 3086 3088 3090 3091 3093 3095 3095 3096 3098 3099 3099 3101 3099 3096 3094 3093 3091 3089 3087 3085 3083 3081 3078 3076 3075 3072 3069 3067
3062 3065 3069 3069 3071 3069 3068 3068 3072 3077 3081 3076 3083 3069 3077 3079 3080 3081 3082 3084 3084 3088 3090 3090 3091 3091 3092 3091 3091 3088 3086 3084 3083 3080 3077 3075 3073 3072 3070 3068 3065 3063 3060 3058
3054 3053 3049 3046 3051 3054 3056 3058 3062 3066 3066 3068 3061 3067 3068 3072 3074 3076 3075 3075 3075 3078 3083 3082 3081 3082 3083 3082 3081 3079 3077 3075 3072 3070 3068 3066 3064 3063 3061 3059 3057 3054 3051 3048
3039 3036 3041 3041 3044 3044 3045 3049 3052 3051 3054 3057 3055 3058 3062 3065 3067 3068 3069 3067 3067 3067 3072 3073 3074 3073 3073 3072 3070 3070 3068 3065 3063 3061 3060 3058 3056 3054 3053 3050 3047 3044 3041 3038
3025 3025 3030 3032 3035 3036 3034 3037 3040 3044 3048 3047 3048 3046 3055 3057 3057 3059 3060 3058 3059 3060 3063 3063 3064 3062 3062 3061 3061 3059 3058 3055 3053 3052 3050 3048 3047 3045 3042 3040 3037 3034 3031 3028
3014 3015 3020 3020 3024 3027 3026 3017 3028 3030 3033 3038 3036 3038 3046 3047 3048 3049 3050 3048 3049 3052 3054 3053 3053 3053 3052 3051 3049 3049 3048 3045 3043 3043 3041 3039 3038 3035 3032 3030 3027 3025 3022 3019
3001 3007 3012 3012 3017 3014 3007 3010 3016 3020 3024 3026 3027 3031 3034 3036 3038 3039 3039 3039 3040 3042 3044 3045 3045 3044 3042 3039 3039 3038 3038 3036 3034 3033 3032 3030 3028 3025 3023 3021 3019 3016 3013 3009
2996 2999 3003 3005 3006 3003 3002 3003 3009 3012 3015 3017 3020 3023 3025 3027 3028 3029 3030 3030 3031 3033 3034 3035 3035 3033 3030 3028 3027 3027 3027 3026 3025 3024 3022 3020 3017 3016 3014 3012 3010 3006 3003 3000
2987 2991 2995 2995 2997 2996 2993 2998 3002 3005 3004 3007 3012 3014 3016 3018 3017 3021 3018 3019 3022 3023 3025 3026 3024 3022 3019 3017 3016 3017 3017 3015 3014 3013 3011 3010 3008 3007 3005 3002 2999 2996 2993 2990
2979 2982 2984 2985 2987 2985 2987 2991 2995 3000 3000 3000 3003 3005 3007 3010 3012 3010 3011 3013 3014 3015 3015 3014 3013 3011 3010 3007 3007 3007 3007 3006 3004 3002 3002 3000 2999 2997 2994 2992 2989 2986 2983 2979
2967 2973 2977 2980 2982 2981 2980 2983 2988 2989 2990 2995 2996 2997 2999 3001 3002 3004 3003 3005 3004 3004 3003 3001 3002 3002 3000 2998 2999 2998 2997 2996 2994 2993 2992 2990 2989 2986 2984 2981 2978 2975 2972 2969
2968 2967 2968 2972 2969 2972 2974 2977 2979 2982 2984 2988 2991 2991 2991 2991 2993 2992 2993 2994 2993 2992 2991 2991 2992 2991 2989 2990 2988 2989 2988 2986 2984 2983 2981 2979 2978 2976 2973 2971 2967 2964 2961 2958
2960 2962 2962 2964 2963 2964 2967 2971 2974 2976 2978 2979 2981 2982 2982 2983 2982 2983 2984 2984 2983 2981 2981 2982 2982 2981 2980 2981 2979 2978 2977 2975 2974 2972 2971 2969 2967 2964 2962 2959 2956 2953 2950 2946
2953 2953 2952 2952 2956 2960 2963 2966 2968 2970 2970 2972 2972 2974 2974 2973 2974 2974 2974 2973 2972 2971 2971 2972 2972 2971 2970 2971 2970 2968 2967 2965 2963 2962 2960 2958 2955 2953 2950 2947 2944 2942 2938 2935
2942 2942 2945 2948 2952 2954 2957 2958 2960 2962 2963 2963 2964 2965 2965 2964 2966 2965 2965 2966 2965 2963 2962 2961 2962 2962 2961 2960 2959 2957 2956 2954 2952 2951 2948 2946 2944 2941 2938 2936 2933 2930 2926 2924